This is the latest recevied weather packets stored in our database for station/object JA6YCL-13. If no packets are shown the sender has not sent any weather packets the latest 10 day(s).
| Time | Temp. | Humidity | Pressure | Rain* | Wind** | Luminosity | Snow |
|---|---|---|---|---|---|---|---|
| 1777536826 | 13.89° C | 95% | 1010.5 hPa | 1.02 mm | - | - | - |
| 1777535956 | 13.89° C | 96% | 1010.7 hPa | 0 mm | - | - | - |
| 1777535221 | 13.89° C | 96% | 1010.8 hPa | 1.78 mm | - | - | - |
| 1777534326 | 13.89° C | 96% | 1011.2 hPa | 4.32 mm | - | - | - |
| 1777533562 | 13.89° C | 95% | 1011.3 hPa | 9.65 mm | - | - | - |
| 1777532691 | 13.89° C | 95% | 1011.5 hPa | 1.02 mm | - | - | - |
| 1777531961 | 13.89° C | 96% | 1011.5 hPa | 0.25 mm | - | - | - |
| 1777531151 | 13.89° C | 96% | 1011.6 hPa | 1.27 mm | - | - | - |
| 1777530419 | 13.89° C | 95% | 1011.8 hPa | 1.78 mm | - | - | - |
| 1777529636 | 13.89° C | 95% | 1012.1 hPa | 1.02 mm | - | - | - |
| 1777528861 | 13.89° C | 95% | 1012.1 hPa | 2.03 mm | - | - | - |
| 1777528072 | 13.89° C | 94% | 1012.5 hPa | 3.56 mm | - | - | - |
| 1777527219 | 13.89° C | 94% | 1013 hPa | 1.78 mm | - | - | - |
| 1777526465 | 13.89° C | 93% | 1013.1 hPa | 0 mm | - | - | - |
| 1777525705 | 13.89° C | 93% | 1013 hPa | 0.25 mm | - | - | - |
| 1777524926 | 13.89° C | 91% | 1012.8 hPa | 0 mm | - | - | - |
| 1777524099 | 13.89° C | 92% | 1013 hPa | 1.27 mm | - | - | - |
| 1777523366 | 13.33° C | 90% | 1013.6 hPa | 0 mm | - | - | - |
| 1777522513 | 13.33° C | 92% | 1013.8 hPa | 1.78 mm | - | - | - |
| 1777521641 | 13.33° C | 92% | 1014 hPa | 0 mm | - | - | - |
| 1777520871 | 13.33° C | 92% | 1014.4 hPa | 0 mm | - | - | - |
| 1777519991 | 13.33° C | 90% | 1014.8 hPa | 0 mm | - | - | - |
| 1777519140 | 13.33° C | 91% | 1014.9 hPa | 0.25 mm | - | - | - |
| 1777518401 | 13.33° C | 91% | 1015.2 hPa | 0 mm | - | - | - |
| 1777517616 | 13.33° C | 90% | 1015.4 hPa | 1.78 mm | - | - | - |
* Rain latest hour (hover to see other rain measurements)
** Current wind speed in m/s (hover to see current wind gust speed)